NVS-01 (IRNSS-1J)

Last updated on Thu Jul 03 2025 00:02:49 GMT+0000 (Coordinated Universal Time)

1 56759U 23076A 25183.63069507 -.00000326 00000+0 00000+0 0 9995 2 56759 3.0255 256.6627 0003251 3.2617 17.6019 1.00272323 7611
UTC large
Height (km)
Speed (km/s)
/
Latitude / Longitude
Inclination (degrees)
Orbital Period (minutes)
Azimuth
Elevation
Range (km)
Doppler Factor

Next 0 passes for location: London (51.5072 / 0.1276)

Sorry there are no passes over London.